[[{"header":{"parameterUnit":"m.s-1","parameterCategory":2,"la1":30.2991,"la2":30.254,"lo1":-89.0895,"lo2":-89.0444,"dy":0.0017,"dx":0.0017,"nx":28,"ny":28,"refTime":"2024-07-12T03:00:00:Z","depth":"0","parameterNumber":2,"parameterNumberName":"U-component_of_CURRENTS"},"data":[0,0,0,0,0,0,0,0,0,0,0,0,0,0,0,0,0,0,0,0,0,0,0,0,0,0,0,0,0,0,0,0,0,0,0,0,0,0,0,0,0,0,0,0,0,0,0,0,0,0,0,0,0,0,0,0,0,0,0.33,0.33,0,0.3363,0.3364,0.3365,0.3354,0.3353,0.3351,0.335,0.3332,0.3333,0.3333,0,0,0,0,0,0,0,0,0,0,0,0,0,0.3134,0.3137,0.3299,0.33,0.3301,0.3363,0.3364,0.3365,0.3354,0.3352,0.3351,0.335,0.3332,0.3333,0.3333,0,0,0,0,0,0,0,0,0,0,0,0,0,0.3202,0.3138,0.3299,0.3304,0.3305,0.3363,0.3364,0.3365,0.3354,0.3352,0.3351,0.3349,0.3332,0.3333,0.3334,0.337,0,0,0.3336,0.3336,0,0,0,0,0,0,0,0,0.3198,0.3208,0.3302,0.3303,0.3305,0.3349,0.3299,0.3363,0.3354,0.3335,0.335,0.3349,0.3332,0.3333,0.3349,0.3369,0.3369,0.3336,0.3336,0.3337,0.3337,0,0,0,0,0,0,0,0.3194,0.3205,0.3324,0.3303,0.3305,0.3291,0.3299,0.3311,0.334,0.3336,0.3336,0.3344,0.3332,0.3348,0.3348,0.3368,0.3336,0.3337,0.3337,0.3337,0.3434,0.3436,0,0,0,0,0,0,0.3192,0.3202,0.3322,0.3326,0.3247,0.3295,0.3304,0.3336,0.3341,0.3341,0.3346,0.3344,0.3348,0.3347,0.3347,0.3382,0.3337,0.3337,0.3338,0.3432,0.3434,0.3437,0,0,0,0,0,0,0.3188,0.3203,0.332,0.3264,0.3278,0.33,0.3336,0.3338,0.3362,0.3349,0.3347,0.3367,0.3346,0.3346,0.3332,0.3381,0.3338,0.3339,0.3429,0.3433,0.3435,0.3456,0,0,0,0,0,0,0.3184,0.3202,0.3245,0.3265,0.3281,0.3356,0.3337,0.3341,0.3369,0.3367,0.3367,0.3363,0.3345,0.3331,0.3333,0.3381,0.3339,0.3427,0.3431,0.3434,0.3453,0.3459,0.3465,0,0,0,0,0,0.3178,0.3223,0.3247,0.3262,0.3333,0.3357,0.3364,0.3372,0.3372,0.3387,0.3362,0.3364,0.336,0.3331,0.3334,0.3383,0.3425,0.343,0.3434,0.345,0.3458,0.3465,0,0,0,0,0,0,0.3169,0.3227,0.3253,0.3315,0.3341,0.3355,0.3367,0.3387,0.3388,0.3373,0.3363,0.3358,0.3378,0.3378,0.3348,0.3428,0.3406,0.3411,0.3417,0.3425,0.3431,0.3405,0.334,0,0,0,0,0,0.3193,0.3248,0.3284,0.3338,0.3338,0.3362,0.3381,0.3387,0.3384,0.3385,0.339,0.3394,0.3406,0.3405,0.3416,0.3442,0.3449,0.3488,0.3494,0.3499,0.3483,0.3528,0.3535,0.3452,0.3452,0.3452,0,0,0.3208,0.3247,0.3281,0.3341,0.3349,0.3356,0.3368,0.3383,0.3402,0.3382,0.3401,0.3414,0.3418,0.3442,0.3456,0.3441,0.3533,0.3505,0.3509,0.3489,0.3533,0.3541,0.3548,0.3455,0.3455,0.3454,0,0,0.323,0.3285,0.332,0.3334,0.3358,0.3366,0.3375,0.3398,0.3415,0.3439,0.3434,0.3457,0.3487,0.3492,0.3499,0.3552,0.3567,0.3588,0.359,0.3634,0.3641,0.3646,0.3682,0.3691,0.3587,0.3587,0.3587,0,0.3232,0.329,0.3331,0.3342,0.3339,0.3366,0.3362,0.3395,0.3424,0.3439,0.3442,0.35,0.3509,0.3532,0.355,0.3565,0.3587,0.3554,0.3639,0.3645,0.365,0.3686,0.3695,0.3589,0.3588,0.3588,0.3588,0,0.3277,0.33,0.3301,0.333,0.3343,0.3336,0.3363,0.3394,0.3423,0.3462,0.351,0.3525,0.3553,0.3591,0.3578,0.3637,0.3641,0.3643,0.361,0.3659,0.3695,0.3704,0.3591,0.359,0.359,0.3589,0,0,0.3283,0.3324,0.3315,0.3306,0.332,0.3322,0.3349,0.338,0.3398,0.3468,0.3498,0.3553,0.3581,0.359,0.3609,0.3649,0.3718,0.3659,0.3661,0.3678,0.3815,0.3745,0.3748,0.3736,0.3738,0.3739,0.383,0,0.3275,0.3291,0.3314,0.3293,0.3275,0.3292,0.3313,0.3356,0.3399,0.3445,0.3506,0.3544,0.3578,0.3589,0.3641,0.3694,0.3741,0.3693,0.378,0.3782,0.3699,0.3755,0.3603,0.3665,0.3839,0.384,0.3841,0,0.328,0.3286,0.3272,0.3251,0.3242,0.3242,0.3248,0.3278,0.3355,0.3391,0.3451,0.3506,0.3578,0.3597,0.3721,0.369,0.3752,0.3798,0.3803,0.3727,0.3727,0.3644,0.3674,0.351,0.3855,0.3854,0.3853,0,0.3239,0.323,0.3215,0.3208,0.3214,0.3204,0.3208,0.3263,0.3274,0.3355,0.3376,0.3482,0.3524,0.3627,0.3739,0.3736,0.3869,0.3878,0.3875,0.3871,0.3749,0.3731,0.3608,0.3963,0.3962,0.3962,0.3962,0,0.3201,0.3173,0.3192,0.3176,0.3142,0.3163,0.3139,0.3173,0.3211,0.3223,0.3339,0.3366,0.3535,0.3636,0.3737,0.383,0.3877,0.3875,0.3889,0.3755,0.3737,0.3594,0.3549,0.3966,0.3965,0.3964,0.3964,0,0.3138,0.3164,0.3128,0.3126,0.3118,0.3093,0.3068,0.3059,0.3116,0.3129,0.3152,0.3294,0.3431,0.3588,0.3757,0.3808,0.3798,0.3933,0.3759,0.3749,0.3565,0.3528,0.3387,0.3325,0.3938,0.3937,0.3936,0,0.3104,0.3082,0.3073,0.3043,0.3028,0.2996,0.2968,0.3003,0.2993,0.3077,0.3078,0.3224,0.3315,0.3537,0.3668,0.3825,0.374,0.3751,0.3709,0.3522,0.3494,0.34,0.3352,0.3577,0.3573,0.357,0.3567,0,0.2999,0.3005,0.2987,0.2939,0.2897,0.2857,0.2827,0.2809,0.2859,0.2884,0.294,0.3024,0.3242,0.3346,0.3545,0.3621,0.3533,0.3688,0.354,0.3229,0.3072,0.3028,0.3551,0.3539,0.3542,0.3544,0.3545,0.3546,0.2902,0.2867,0.2849,0.2795,0.2755,0.2706,0.2645,0.2644,0.2629,0.2641,0.2777,0.2845,0.3018,0.3281,0.3332,0.3263,0.3351,0.3198,0.3186,0.3119,0.2984,0.3432,0.3401,0.3402,0.3404,0.3406,0.3407,0,0.2752,0.274,0.269,0.2625,0.2542,0.2574,0.2527,0.2463,0.2418,0.2487,0.2527,0.2618,0.2705,0.2827,0.2869,0.278,0.2712,0.2693,0.2509,0.2508,0.2936,0.2839,0.2623,0.2623,0.2624,0.2624,0.2624,0.2624,0.2672,0.2603,0.2595,0.2434,0.2379,0.226,0.2223,0.2175,0.219,0.2157,0.2179,0.2258,0.2395,0.2425,0.233,0.2291,0.2143,0.2058,0.21,0.2354,0.2398,0.2441,0.2334,0.2016,0.2015,0.1574,0.157,0.1567]},{"header":{"parameterUnit":"m.s-1","parameterCategory":2,"la1":30.2991,"la2":30.254,"lo1":-89.0895,"lo2":-89.0444,"dy":0.0017,"dx":0.0017,"nx":28,"ny":28,"refTime":"2024-07-12T03:00:00:Z","depth":"0","parameterNumber":3,"parameterNumberName":"V-component_of_CURRENTS"},"data":[0,0,0,0,0,0,0,0,0,0,0,0,0,0,0,0,0,0,0,0,0,0,0,0,0,0,0,0,0,0,0,0,0,0,0,0,0,0,0,0,0,0,0,0,0,0,0,0,0,0,0,0,0,0,0,0,0,0,0.0729,0.073,0,0.0792,0.0792,0.0793,0.0839,0.0839,0.0839,0.084,0.0881,0.0882,0.0882,0,0,0,0,0,0,0,0,0,0,0,0,0,0.0661,0.0662,0.0729,0.073,0.0731,0.0791,0.0792,0.0793,0.0839,0.0839,0.0839,0.084,0.088,0.0881,0.0882,0,0,0,0,0,0,0,0,0,0,0,0,0,0.0705,0.0662,0.0729,0.076,0.0763,0.0791,0.0792,0.0794,0.0839,0.0839,0.0839,0.084,0.088,0.0881,0.0883,0.0881,0,0,0.0886,0.0887,0,0,0,0,0,0,0,0,0.0702,0.0707,0.0755,0.0758,0.0761,0.0807,0.0783,0.0821,0.0838,0.0811,0.084,0.084,0.0853,0.0857,0.0869,0.0883,0.0885,0.0886,0.0887,0.0888,0.0888,0,0,0,0,0,0,0,0.0699,0.0705,0.0755,0.0755,0.0759,0.0774,0.0781,0.0791,0.0829,0.0813,0.0817,0.0822,0.0855,0.0868,0.087,0.0885,0.0886,0.0887,0.0888,0.0889,0.0941,0.0941,0,0,0,0,0,0,0.0688,0.0702,0.0753,0.0757,0.0731,0.0775,0.0783,0.0793,0.083,0.0836,0.0821,0.0824,0.0865,0.0869,0.0872,0.0902,0.0888,0.0889,0.089,0.094,0.0941,0.0942,0,0,0,0,0,0,0.0687,0.0693,0.075,0.073,0.0738,0.0776,0.0787,0.0794,0.0819,0.0836,0.0842,0.084,0.0866,0.087,0.0882,0.0903,0.0889,0.089,0.0939,0.094,0.0941,0.0943,0,0,0,0,0,0,0.0685,0.0692,0.0699,0.0729,0.0739,0.0786,0.0786,0.0795,0.082,0.0824,0.0853,0.0857,0.0867,0.088,0.0883,0.0904,0.0891,0.0939,0.094,0.0941,0.0942,0.0944,0.0946,0,0,0,0,0,0.0682,0.0711,0.0699,0.0705,0.0746,0.0787,0.0794,0.0822,0.082,0.0844,0.0846,0.0857,0.0891,0.0881,0.0885,0.0907,0.0938,0.094,0.0941,0.0942,0.0944,0.0946,0,0,0,0,0,0,0.0697,0.0719,0.0707,0.0742,0.0761,0.0795,0.0815,0.0826,0.0847,0.0846,0.0855,0.086,0.0883,0.0891,0.088,0.0926,0.0921,0.0923,0.092,0.0922,0.0924,0.0954,0.0892,0,0,0,0,0,0.0695,0.0724,0.0734,0.0766,0.0764,0.0782,0.0801,0.0819,0.0839,0.085,0.0868,0.0881,0.0891,0.0901,0.0917,0.0934,0.0927,0.0955,0.0956,0.0958,0.0986,0.0958,0.096,0.0946,0.0946,0.0946,0,0,0.0715,0.0727,0.0747,0.077,0.0777,0.0799,0.0797,0.083,0.0862,0.0848,0.0892,0.0888,0.0896,0.0919,0.0931,0.0928,0.0956,0.096,0.096,0.0989,0.096,0.0961,0.0962,0.0947,0.0947,0.0947,0,0,0.0765,0.0765,0.0792,0.0804,0.0816,0.0827,0.0835,0.0863,0.0884,0.0911,0.0907,0.091,0.0939,0.0946,0.095,0.0971,0.0964,0.098,0.1015,0.0987,0.0988,0.0988,0.0967,0.0966,0.0982,0.0982,0.0982,0,0.0771,0.0811,0.081,0.0828,0.0842,0.0838,0.0864,0.0886,0.0924,0.0944,0.0931,0.0962,0.0956,0.098,0.0985,0.0976,0.0961,0.1002,0.0988,0.0988,0.0989,0.0967,0.0966,0.0982,0.0982,0.0982,0.0982,0,0.0831,0.0856,0.0873,0.0887,0.0906,0.0935,0.0943,0.0972,0.0979,0.1002,0.1032,0.1013,0.1036,0.1027,0.101,0.1022,0.1009,0.0987,0.0979,0.099,0.0967,0.0965,0.0983,0.0983,0.0983,0.0982,0,0,0.0835,0.09,0.0901,0.0918,0.0937,0.096,0.1,0.1037,0.1068,0.1088,0.1127,0.1122,0.1113,0.1117,0.1092,0.1066,0.1033,0.1033,0.1031,0.1007,0.0975,0.0954,0.095,0.0999,0.0999,0.1,0.0952,0,0.0864,0.0928,0.0951,0.1005,0.1023,0.1035,0.1075,0.1111,0.113,0.1168,0.1156,0.1176,0.1147,0.114,0.1116,0.106,0.1033,0.1049,0.0975,0.0974,0.0948,0.0948,0.0936,0.0892,0.0951,0.095,0.095,0,0.0878,0.0929,0.099,0.1057,0.1063,0.1097,0.1144,0.1182,0.1227,0.1241,0.1261,0.1255,0.1247,0.1196,0.1132,0.1143,0.1072,0.1018,0.1014,0.1001,0.095,0.0894,0.0887,0.0788,0.0948,0.0948,0.0948,0,0.0855,0.094,0.0997,0.1016,0.1092,0.1123,0.1159,0.1206,0.1238,0.1282,0.1303,0.1305,0.1293,0.1225,0.1141,0.1126,0.1055,0.1013,0.0932,0.0929,0.0913,0.0909,0.0802,0.0958,0.0958,0.0958,0.0958,0,0.085,0.0888,0.0996,0.1021,0.1087,0.113,0.1184,0.1223,0.1274,0.1317,0.1335,0.1359,0.1295,0.1257,0.1166,0.1062,0.1075,0.0953,0.0919,0.0912,0.0909,0.0818,0.0768,0.0956,0.0957,0.0957,0.0957,0,0.0791,0.0865,0.0927,0.1035,0.1071,0.1106,0.1191,0.1231,0.1283,0.1335,0.135,0.1389,0.1351,0.1285,0.1173,0.109,0.0931,0.094,0.0947,0.0915,0.074,0.0691,0.059,0.0572,0.0841,0.084,0.0839,0,0.0775,0.0805,0.0921,0.0965,0.1012,0.1084,0.1136,0.1215,0.1264,0.1353,0.1381,0.1385,0.1404,0.1268,0.1122,0.0982,0.0902,0.0865,0.0832,0.0742,0.0661,0.0636,0.0628,0.0802,0.0801,0.0801,0.08,0,0.0746,0.0776,0.0836,0.0926,0.0992,0.1074,0.116,0.1202,0.1299,0.1362,0.1439,0.1465,0.1367,0.1253,0.108,0.0967,0.0803,0.0843,0.0742,0.0627,0.0602,0.0565,0.0826,0.0794,0.0794,0.0795,0.0795,0.0795,0.072,0.0744,0.0824,0.0897,0.0977,0.1072,0.1129,0.1229,0.1322,0.1438,0.147,0.1536,0.1374,0.1149,0.0996,0.071,0.0725,0.0612,0.0561,0.0546,0.0526,0.0783,0.0716,0.0716,0.0716,0.0716,0.0717,0,0.0705,0.074,0.0804,0.0903,0.0971,0.1033,0.1158,0.1226,0.1337,0.1455,0.154,0.1516,0.129,0.1061,0.0673,0.0465,0.0423,0.0362,0.0318,0.0325,0.0537,0.0534,0.0433,0.0433,0.0433,0.0433,0.0433,0.0433,0.0705,0.0747,0.078,0.0889,0.0955,0.1057,0.1129,0.1242,0.1352,0.1482,0.1551,0.1611,0.1442,0.0742,0.0302,0.0215,0.0104,0.0064,0.0033,0.0154,0.0174,0.0192,0.0176,0.0002,0.0001,-0.0142,-0.0144,-0.0145]}],[{"header":{"parameterUnit":"m.s-1","parameterCategory":2,"la1":30.2991,"la2":30.254,"lo1":-89.0895,"lo2":-89.0444,"dy":0.0017,"dx":0.0017,"nx":28,"ny":28,"refTime":"2024-07-12T03:00:00:Z","depth":"2","parameterNumber":2,"parameterNumberName":"U-component_of_CURRENTS"},"data":[0,0,0,0,0,0,0,0,0,0,0,0,0,0,0,0,0,0,0,0,0,0,0,0,0,0,0,0,0,0,0,0,0,0,0,0,0,0,0,0,0,0,0,0,0,0,0,0,0,0,0,0,0,0,0,0,0,0,0.1815,0.1816,0,0.1846,0.1846,0.1846,0.1886,0.1887,0.1888,0.1889,0.1921,0.192,0.192,0,0,0,0,0,0,0,0,0,0,0,0,0,0.1717,0.1718,0.1815,0.1816,0.1817,0.1846,0.1846,0.1846,0.1886,0.1887,0.1889,0.189,0.1921,0.192,0.192,0,0,0,0,0,0,0,0,0,0,0,0,0,0.1748,0.1719,0.1815,0.1845,0.1849,0.1846,0.1846,0.1846,0.1885,0.1887,0.1889,0.1891,0.1921,0.192,0.192,0.1879,0,0,0.1918,0.1918,0,0,0,0,0,0,0,0,0.1747,0.1751,0.184,0.1843,0.1847,0.187,0.1823,0.1859,0.1885,0.1864,0.1889,0.1892,0.1907,0.1907,0.19,0.1881,0.1882,0.1918,0.1918,0.1918,0.1918,0,0,0,0,0,0,0,0.1744,0.175,0.1821,0.1841,0.1845,0.1833,0.1839,0.1829,0.1869,0.1866,0.1871,0.1884,0.1908,0.19,0.1901,0.1882,0.1918,0.1918,0.1918,0.1917,0.1929,0.1929,0,0,0,0,0,0,0.1756,0.1748,0.182,0.1822,0.1808,0.1834,0.1841,0.1855,0.187,0.1876,0.1883,0.1886,0.19,0.1901,0.1902,0.201,0.1918,0.1917,0.1917,0.1928,0.1929,0.193,0,0,0,0,0,0,0.1754,0.1762,0.1819,0.1791,0.1798,0.1835,0.185,0.1855,0.1847,0.1883,0.1888,0.1871,0.1901,0.1903,0.1932,0.2006,0.1917,0.1917,0.1927,0.1928,0.1929,0.2126,0,0,0,0,0,0,0.1751,0.1761,0.1747,0.1792,0.1801,0.1821,0.1849,0.1855,0.1856,0.1861,0.1875,0.188,0.1903,0.1933,0.1932,0.2003,0.1916,0.1927,0.1928,0.1929,0.2118,0.2133,0.2146,0,0,0,0,0,0.1747,0.173,0.1746,0.1754,0.179,0.1821,0.1823,0.185,0.1854,0.1848,0.1887,0.1879,0.1939,0.1934,0.1932,0.2005,0.1926,0.1927,0.1929,0.2112,0.213,0.2145,0,0,0,0,0,0,0.162,0.1735,0.1753,0.1753,0.1787,0.1831,0.1845,0.1837,0.1854,0.1895,0.1888,0.1896,0.1964,0.1921,0.1914,0.2001,0.1929,0.193,0.2069,0.2086,0.2099,0.1995,0.1916,0,0,0,0,0,0.16,0.1619,0.172,0.1682,0.1761,0.1793,0.1799,0.1838,0.1873,0.1881,0.1909,0.1933,0.1961,0.1973,0.2001,0.2023,0.1934,0.206,0.2074,0.2087,0.1995,0.1967,0.197,0.1934,0.1934,0.1934,0,0,0.1544,0.1579,0.1597,0.1657,0.1719,0.1763,0.1803,0.1864,0.1855,0.1884,0.1916,0.1994,0.1977,0.2056,0.2076,0.2032,0.206,0.2088,0.2101,0.1998,0.1969,0.1972,0.1975,0.1935,0.1935,0.1935,0,0,0.143,0.1501,0.1524,0.1572,0.1677,0.1731,0.1747,0.186,0.19,0.1933,0.1991,0.2065,0.2089,0.2122,0.212,0.2183,0.2147,0.2243,0.2223,0.2204,0.2206,0.2207,0.2147,0.214,0.2237,0.2238,0.2238,0,0.142,0.1383,0.1512,0.1537,0.158,0.1713,0.1752,0.179,0.1866,0.1919,0.196,0.2074,0.2085,0.2142,0.2193,0.2213,0.2197,0.2189,0.2224,0.2222,0.222,0.2157,0.2147,0.2247,0.2246,0.2245,0.2244,0,0.1288,0.1311,0.1342,0.143,0.1476,0.1547,0.1678,0.1755,0.1843,0.1891,0.2027,0.2102,0.2161,0.2216,0.2214,0.2254,0.2251,0.2271,0.2192,0.2236,0.2166,0.2153,0.2261,0.2258,0.2255,0.2252,0,0,0.1314,0.1289,0.1313,0.1336,0.1466,0.1511,0.1572,0.1691,0.1735,0.1878,0.1923,0.204,0.2171,0.2167,0.2266,0.2231,0.2236,0.2253,0.2248,0.2204,0.2195,0.2153,0.2133,0.2325,0.2322,0.232,0.2173,0,0.1259,0.1205,0.1221,0.1238,0.131,0.1449,0.1476,0.1582,0.1695,0.1786,0.1932,0.2031,0.213,0.2237,0.2236,0.2255,0.2202,0.227,0.2138,0.213,0.2101,0.2115,0.1953,0.1805,0.2158,0.2156,0.2154,0,0.123,0.1185,0.1162,0.1212,0.1276,0.1292,0.1447,0.1491,0.1643,0.1742,0.1902,0.2023,0.2106,0.2146,0.2159,0.2238,0.2188,0.2154,0.2151,0.1998,0.206,0.1804,0.1765,0.213,0.2132,0.2133,0.2135,0,0.1217,0.1216,0.1168,0.1182,0.1233,0.1292,0.1373,0.1513,0.158,0.175,0.1816,0.1972,0.2059,0.2062,0.207,0.214,0.1985,0.2076,0.1958,0.1955,0.1708,0.1687,0.195,0.195,0.195,0.195,0.1951,0,0.1199,0.1202,0.1165,0.1156,0.1203,0.1277,0.1369,0.148,0.1588,0.167,0.1841,0.1909,0.2038,0.2023,0.2015,0.1948,0.1964,0.1891,0.1901,0.1778,0.1766,0.1945,0.1946,0.1945,0.1946,0.1947,0.1948,0,0.1192,0.1149,0.1149,0.1168,0.1207,0.1263,0.1382,0.1429,0.1554,0.1652,0.1718,0.1846,0.1895,0.1924,0.1872,0.1862,0.1787,0.1717,0.1549,0.1542,0.1782,0.1795,0.1616,0.1613,0.161,0.1608,0.1606,0,0.1113,0.111,0.1158,0.1184,0.1206,0.1285,0.1351,0.1455,0.1488,0.1619,0.1645,0.1716,0.1768,0.168,0.1591,0.1509,0.1661,0.1362,0.1438,0.1713,0.1741,0.1759,0.1775,0.1199,0.1194,0.119,0.1187,0,0.1018,0.1086,0.1079,0.1186,0.1248,0.1256,0.1346,0.1341,0.1462,0.1521,0.1583,0.1613,0.1525,0.1418,0.13,0.1237,0.1397,0.1281,0.1566,0.1338,0.1316,0.1347,0.1377,0.1151,0.1154,0.1157,0.1159,0.116,0.0977,0.0982,0.107,0.117,0.126,0.1266,0.1272,0.1308,0.1353,0.1411,0.1428,0.143,0.1279,0.1062,0.0998,0.0992,0.1064,0.1109,0.1122,0.114,0.1147,0.1126,0.0921,0.0923,0.0925,0.0927,0.0929,0,0.0889,0.0965,0.1045,0.1149,0.1255,0.132,0.1302,0.1254,0.13,0.1303,0.1322,0.1043,0.0906,0.09,0.0775,0.0712,0.0689,0.08,0.0808,0.0837,0.0866,0.0865,0.0561,0.0562,0.0562,0.0562,0,0,0.0837,0.0894,0.0952,0.1128,0.1255,0.1305,0.1292,0.1237,0.1203,0.1101,0.1076,0.0896,0.0849,0.0693,0.0604,0.0659,0.0775,0.0625,0.0893,0.0933,0.0964,0.098,0.1003,0,0,0,0,0]},{"header":{"parameterUnit":"m.s-1","parameterCategory":2,"la1":30.2991,"la2":30.254,"lo1":-89.0895,"lo2":-89.0444,"dy":0.0017,"dx":0.0017,"nx":28,"ny":28,"refTime":"2024-07-12T03:00:00:Z","depth":"2","parameterNumber":3,"parameterNumberName":"V-component_of_CURRENTS"},"data":[0,0,0,0,0,0,0,0,0,0,0,0,0,0,0,0,0,0,0,0,0,0,0,0,0,0,0,0,0,0,0,0,0,0,0,0,0,0,0,0,0,0,0,0,0,0,0,0,0,0,0,0,0,0,0,0,0,0,-0.0228,-0.023,0,-0.0245,-0.0243,-0.0242,-0.0142,-0.014,-0.0139,-0.0138,-0.0168,-0.017,-0.0172,0,0,0,0,0,0,0,0,0,0,0,0,0,-0.0155,-0.0155,-0.0228,-0.023,-0.0232,-0.0245,-0.0243,-0.0242,-0.0142,-0.014,-0.0139,-0.0137,-0.0167,-0.017,-0.0172,0,0,0,0,0,0,0,0,0,0,0,0,0,-0.0164,-0.0155,-0.0228,-0.0195,-0.0194,-0.0245,-0.0243,-0.0242,-0.0142,-0.014,-0.0138,-0.0136,-0.0166,-0.0169,-0.0172,-0.0231,0,0,-0.0182,-0.0183,0,0,0,0,0,0,0,0,-0.0164,-0.0165,-0.0198,-0.0198,-0.0197,-0.0204,-0.023,-0.0245,-0.0143,-0.0144,-0.0138,-0.0135,-0.0194,-0.0194,-0.0178,-0.0233,-0.0234,-0.0182,-0.0184,-0.0185,-0.0186,0,0,0,0,0,0,0,-0.0163,-0.0164,-0.0217,-0.0201,-0.02,-0.0197,-0.0194,-0.0231,-0.0167,-0.0144,-0.0141,-0.017,-0.019,-0.0175,-0.0178,-0.0234,-0.0182,-0.0185,-0.0187,-0.0188,-0.0278,-0.0278,0,0,0,0,0,0,-0.0195,-0.0164,-0.0217,-0.022,-0.0194,-0.0201,-0.0197,-0.019,-0.0166,-0.0166,-0.0172,-0.0166,-0.0171,-0.0175,-0.0179,-0.0154,-0.0185,-0.0188,-0.019,-0.0277,-0.0278,-0.0279,0,0,0,0,0,0,-0.0193,-0.0198,-0.0217,-0.0207,-0.0212,-0.0206,-0.0198,-0.0192,-0.0182,-0.0191,-0.0186,-0.0172,-0.0169,-0.0175,-0.0151,-0.0158,-0.0189,-0.0192,-0.0277,-0.0277,-0.0278,-0.0165,0,0,0,0,0,0,-0.0189,-0.0196,-0.0216,-0.0209,-0.0214,-0.0256,-0.0202,-0.0194,-0.0212,-0.0203,-0.0191,-0.019,-0.0168,-0.0146,-0.0154,-0.0163,-0.0195,-0.0276,-0.0277,-0.0278,-0.0168,-0.0161,-0.0156,0,0,0,0,0,-0.0186,-0.0192,-0.0215,-0.0225,-0.0235,-0.0259,-0.0259,-0.0238,-0.0214,-0.0218,-0.0157,-0.019,-0.0161,-0.0146,-0.0156,-0.0167,-0.0275,-0.0277,-0.0278,-0.017,-0.0163,-0.0156,0,0,0,0,0,0,-0.0176,-0.0185,-0.0209,-0.0222,-0.026,-0.0248,-0.0246,-0.0257,-0.0215,-0.0179,-0.0174,-0.0169,-0.0143,-0.0191,-0.0177,-0.0203,-0.0237,-0.024,-0.0152,-0.0145,-0.014,-0.0177,-0.0197,0,0,0,0,0,-0.0195,-0.0207,-0.0229,-0.0264,-0.0253,-0.0262,-0.0276,-0.0264,-0.0235,-0.0214,-0.0215,-0.0201,-0.0163,-0.0177,-0.016,-0.0193,-0.0243,-0.022,-0.0214,-0.0208,-0.0249,-0.0307,-0.031,-0.0283,-0.0283,-0.0283,0,0,-0.0211,-0.0229,-0.0238,-0.0268,-0.0263,-0.0252,-0.0256,-0.0257,-0.0263,-0.023,-0.0211,-0.0169,-0.0158,-0.0131,-0.0137,-0.0175,-0.023,-0.021,-0.0204,-0.0249,-0.0309,-0.0312,-0.0314,-0.0283,-0.0283,-0.0283,0,0,-0.0231,-0.0242,-0.0237,-0.0248,-0.027,-0.0264,-0.0275,-0.0267,-0.026,-0.0259,-0.0193,-0.0164,-0.0176,-0.0141,-0.0127,-0.0116,-0.0171,-0.0124,-0.0153,-0.0207,-0.0209,-0.0213,-0.0219,-0.0223,-0.0153,-0.0153,-0.0153,0,-0.0234,-0.0247,-0.0254,-0.0242,-0.0243,-0.0265,-0.0241,-0.0251,-0.0257,-0.0247,-0.0248,-0.0181,-0.0185,-0.0118,-0.0099,-0.0104,-0.0125,-0.0159,-0.0197,-0.0202,-0.0207,-0.0213,-0.022,-0.0148,-0.0148,-0.0149,-0.0149,0,-0.0241,-0.0247,-0.0232,-0.0218,-0.0224,-0.021,-0.0215,-0.0223,-0.0228,-0.024,-0.0198,-0.0167,-0.0128,-0.0135,-0.0113,-0.0131,-0.0124,-0.0147,-0.0204,-0.0202,-0.0209,-0.0218,-0.014,-0.0142,-0.0144,-0.0145,0,0,-0.0219,-0.0223,-0.0218,-0.0204,-0.0193,-0.0185,-0.018,-0.0176,-0.0157,-0.0187,-0.016,-0.0124,-0.0105,-0.0094,-0.006,-0.0147,-0.0178,-0.0176,-0.0181,-0.0165,-0.0258,-0.0147,-0.0147,-0.0195,-0.0197,-0.0199,-0.0224,0,-0.0206,-0.0178,-0.0187,-0.0159,-0.0121,-0.012,-0.0111,-0.0117,-0.013,-0.0119,-0.0117,-0.0065,-0.0088,-0.0031,-0.011,-0.0139,-0.0208,-0.0168,-0.0282,-0.0286,-0.0174,-0.0157,-0.0191,-0.0209,-0.0233,-0.0235,-0.0236,0,-0.0197,-0.0178,-0.0132,-0.0099,-0.0071,-0.0061,-0.0014,-0.0011,-0.0007,-0.0011,0.0016,0.0031,0.001,-0.0045,-0.0148,-0.011,-0.0193,-0.0266,-0.0268,-0.023,-0.0195,-0.0232,-0.0225,-0.0252,-0.0251,-0.025,-0.0249,0,-0.0178,-0.0138,-0.0099,-0.0085,-0.0043,-0.0016,0.0014,0.0027,0.0052,0.0071,0.0099,0.0085,0.0104,-0.0022,-0.0128,-0.0141,-0.0283,-0.0308,-0.0288,-0.0278,-0.0371,-0.0365,-0.0443,-0.0443,-0.0443,-0.0443,-0.0443,0,-0.0159,-0.0135,-0.0084,-0.0061,0.0014,0.0032,0.0101,0.0116,0.0152,0.0203,0.0182,0.0217,0.0091,0.0028,-0.0105,-0.0189,-0.0247,-0.0298,-0.029,-0.0322,-0.0312,-0.0423,-0.042,-0.0444,-0.0443,-0.0443,-0.0443,0,-0.0171,-0.0141,-0.0088,-0.0016,0.0018,0.0075,0.0166,0.0212,0.0238,0.0305,0.0328,0.0306,0.0243,0.0129,-0.006,-0.012,-0.0246,-0.0275,-0.0264,-0.0254,-0.0212,-0.0203,-0.0248,-0.0245,-0.0242,-0.024,-0.0238,0,-0.0174,-0.0147,-0.0049,0.0007,0.0039,0.013,0.0201,0.0256,0.0304,0.0361,0.0399,0.0377,0.0378,0.021,0.006,-0.0087,-0.017,-0.019,-0.0239,-0.021,-0.0199,-0.0195,-0.019,-0.0307,-0.0305,-0.0304,-0.0303,0,-0.0159,-0.013,-0.008,0.0039,0.0125,0.0224,0.0319,0.0367,0.0443,0.0503,0.055,0.0552,0.0432,0.0277,0.0126,0.0015,-0.0156,-0.0164,-0.0186,-0.0315,-0.0258,-0.0247,-0.0244,-0.0294,-0.0295,-0.0296,-0.0296,-0.0297,-0.0144,-0.0101,-0.0014,0.0086,0.02,0.0317,0.0394,0.0496,0.0609,0.0709,0.0665,0.0659,0.038,0.0205,0.0067,-0.0021,-0.0036,-0.0142,-0.015,-0.0159,-0.0125,-0.0063,-0.0055,-0.0054,-0.0054,-0.0054,-0.0054,0,-0.0091,-0.0048,0.0041,0.0174,0.0299,0.0354,0.0485,0.0568,0.0721,0.0778,0.0835,0.0557,0.0394,0.0173,0.0051,-0.0048,-0.0104,-0.0082,-0.0195,-0.0203,-0.0211,-0.0185,-0.0128,-0.0128,-0.0128,-0.0128,0,0,-0.0056,0.0025,0.0063,0.0255,0.0354,0.0516,0.0595,0.0727,0.0791,0.0853,0.0826,0.069,0.0371,0.0202,0.0021,-0.0013,-0.0056,-0.0007,0.0056,-0.0063,-0.0068,-0.0249,-0.0216,0,0,0,0,0]}],[{"header":{"parameterUnit":"m.s-1","parameterCategory":2,"la1":30.2991,"la2":30.254,"lo1":-89.0895,"lo2":-89.0444,"dy":0.0017,"dx":0.0017,"nx":28,"ny":28,"refTime":"2024-07-12T03:00:00:Z","depth":"4","parameterNumber":2,"parameterNumberName":"U-component_of_CURRENTS"},"data":[0,0,0,0,0,0,0,0,0,0,0,0,0,0,0,0,0,0,0,0,0,0,0,0,0,0,0,0,0,0,0,0,0,0,0,0,0,0,0,0,0,0,0,0,0,0,0,0,0,0,0,0,0,0,0,0,0,0,-0.0315,-0.0315,0,-0.0381,-0.0382,-0.0382,-0.0447,-0.0447,-0.0448,-0.0449,-0.058,-0.0583,-0.0585,0,0,0,0,0,0,0,0,0,0,0,0,0,-0.0237,-0.0238,-0.0314,-0.0315,-0.0316,-0.0381,-0.0382,-0.0383,-0.0447,-0.0447,-0.0448,-0.0449,-0.0579,-0.0582,-0.0586,0,0,0,0,0,0,0,0,0,0,0,0,0,-0.0285,-0.0239,-0.0314,-0.0354,-0.0358,-0.038,-0.0382,-0.0383,-0.0447,-0.0448,-0.0449,-0.0449,-0.0578,-0.0582,-0.0586,-0.0593,0,0,-0.0599,-0.0601,0,0,0,0,0,0,0,0,-0.0283,-0.0288,-0.0348,-0.0351,-0.0356,-0.0405,-0.0402,-0.0456,-0.0446,-0.0415,-0.0449,-0.045,-0.0525,-0.0534,-0.0546,-0.0599,-0.0605,-0.06,-0.0602,-0.0604,-0.0605,0,0,0,0,0,0,0,-0.0279,-0.0286,-0.0343,-0.0348,-0.0353,-0.0366,-0.0375,-0.0413,-0.0466,-0.0418,-0.0422,-0.0426,-0.0529,-0.0542,-0.055,-0.0607,-0.06,-0.0603,-0.0606,-0.0608,-0.0763,-0.0765,0,0,0,0,0,0,-0.0267,-0.0283,-0.034,-0.0344,-0.0319,-0.0367,-0.0376,-0.039,-0.0465,-0.0476,-0.0425,-0.0429,-0.0534,-0.0545,-0.0555,-0.0668,-0.0604,-0.0608,-0.0611,-0.0762,-0.0764,-0.0766,0,0,0,0,0,0,-0.0265,-0.0272,-0.0338,-0.0313,-0.0322,-0.0367,-0.0382,-0.039,-0.0434,-0.0469,-0.0483,-0.0462,-0.0535,-0.0549,-0.0646,-0.067,-0.061,-0.0614,-0.076,-0.0763,-0.0765,-0.0831,0,0,0,0,0,0,-0.0263,-0.0271,-0.0279,-0.0312,-0.0323,-0.0356,-0.0381,-0.0391,-0.0432,-0.0438,-0.0505,-0.0516,-0.0537,-0.064,-0.0651,-0.0675,-0.0617,-0.0758,-0.0761,-0.0764,-0.0827,-0.0835,-0.0843,0,0,0,0,0,-0.026,-0.0264,-0.0279,-0.0286,-0.0332,-0.0355,-0.0363,-0.0398,-0.0433,-0.0444,-0.0527,-0.0516,-0.0664,-0.0647,-0.0658,-0.0684,-0.0757,-0.076,-0.0764,-0.0823,-0.0834,-0.0842,0,0,0,0,0,0,-0.0247,-0.0272,-0.0289,-0.0305,-0.033,-0.0366,-0.0388,-0.0414,-0.0485,-0.0521,-0.0558,-0.0575,-0.0665,-0.0667,-0.0646,-0.0735,-0.0699,-0.0705,-0.074,-0.075,-0.0758,-0.0714,-0.0621,0,0,0,0,0,-0.0243,-0.0251,-0.0281,-0.0297,-0.0318,-0.0361,-0.0379,-0.0412,-0.0472,-0.0505,-0.055,-0.0612,-0.068,-0.0713,-0.0761,-0.0818,-0.078,-0.0834,-0.0842,-0.0849,-0.0821,-0.0811,-0.0815,-0.0777,-0.0777,-0.0777,0,0,-0.024,-0.0258,-0.0262,-0.0294,-0.033,-0.0355,-0.0377,-0.0426,-0.0455,-0.051,-0.0584,-0.065,-0.0706,-0.0781,-0.0816,-0.0791,-0.0842,-0.0853,-0.0859,-0.0826,-0.0815,-0.0819,-0.0821,-0.0779,-0.0779,-0.0779,0,0,-0.0244,-0.0267,-0.0279,-0.03,-0.0351,-0.0373,-0.0392,-0.0446,-0.0484,-0.0563,-0.0622,-0.0703,-0.0784,-0.0827,-0.0862,-0.0935,-0.0892,-0.0953,-0.0953,-0.0946,-0.0948,-0.095,-0.0908,-0.0905,-0.0948,-0.0948,-0.0948,0,-0.0252,-0.0265,-0.0286,-0.0311,-0.0334,-0.0384,-0.0414,-0.0451,-0.0528,-0.057,-0.0593,-0.0743,-0.0795,-0.0886,-0.0922,-0.0949,-0.0929,-0.0919,-0.0954,-0.0955,-0.0955,-0.0912,-0.0908,-0.0951,-0.0951,-0.0951,-0.095,0,-0.0256,-0.0279,-0.0298,-0.0338,-0.0361,-0.0399,-0.0447,-0.0493,-0.0553,-0.0591,-0.0699,-0.0779,-0.0856,-0.0894,-0.0942,-0.0984,-0.0964,-0.0974,-0.0925,-0.0963,-0.0915,-0.0909,-0.0956,-0.0955,-0.0954,-0.0953,0,0,-0.0266,-0.0293,-0.0306,-0.0323,-0.0385,-0.0404,-0.0466,-0.0526,-0.0577,-0.0649,-0.0706,-0.0833,-0.0874,-0.0913,-0.0975,-0.0976,-0.0982,-0.0981,-0.0979,-0.0928,-0.0944,-0.0853,-0.0838,-0.1009,-0.1009,-0.1008,-0.0911,0,-0.028,-0.0307,-0.0322,-0.036,-0.0386,-0.0439,-0.0483,-0.0548,-0.0615,-0.0675,-0.0757,-0.0834,-0.088,-0.0937,-0.0952,-0.0985,-0.097,-0.1005,-0.0923,-0.0919,-0.0825,-0.0829,-0.1007,-0.0906,-0.0905,-0.0904,-0.0903,0,-0.0292,-0.0307,-0.0342,-0.0376,-0.0397,-0.0432,-0.0517,-0.0564,-0.0659,-0.071,-0.0789,-0.0838,-0.089,-0.091,-0.0925,-0.0952,-0.0943,-0.0943,-0.094,-0.0816,-0.0817,-0.0861,-0.0892,-0.0893,-0.0894,-0.0894,-0.0895,0,-0.0285,-0.0321,-0.0344,-0.0358,-0.0411,-0.0458,-0.0505,-0.06,-0.0642,-0.0733,-0.0758,-0.0828,-0.0856,-0.0863,-0.0875,-0.0903,-0.0853,-0.0886,-0.0779,-0.0772,-0.0854,-0.0853,-0.0855,-0.0855,-0.0855,-0.0856,-0.0856,0,-0.0293,-0.031,-0.035,-0.0366,-0.0408,-0.0465,-0.0536,-0.0592,-0.0674,-0.0699,-0.0778,-0.0765,-0.0846,-0.0834,-0.0846,-0.0779,-0.0821,-0.0751,-0.0737,-0.0886,-0.089,-0.0849,-0.085,-0.0852,-0.0853,-0.0853,-0.0854,0,-0.0288,-0.031,-0.0331,-0.0388,-0.0409,-0.0455,-0.0532,-0.0566,-0.0653,-0.0681,-0.0696,-0.0718,-0.0674,-0.0722,-0.0712,-0.0715,-0.0679,-0.0643,-0.0764,-0.0763,-0.0605,-0.0611,-0.0498,-0.0494,-0.049,-0.0487,-0.0485,0,-0.0281,-0.0297,-0.0337,-0.0347,-0.0382,-0.0447,-0.0476,-0.0561,-0.0571,-0.0611,-0.0583,-0.057,-0.0574,-0.0473,-0.0531,-0.052,-0.053,-0.0521,-0.0591,-0.0569,-0.0567,-0.0578,-0.0588,-0.0479,-0.0478,-0.0477,-0.0476,0,-0.0269,-0.0291,-0.0304,-0.0328,-0.0357,-0.0361,-0.0404,-0.0396,-0.0463,-0.0531,-0.0449,-0.0437,-0.0375,-0.0365,-0.0375,-0.0372,-0.0541,-0.0485,-0.0493,-0.0559,-0.0545,-0.055,-0.0564,-0.0464,-0.0466,-0.0467,-0.0468,0,-0.0259,-0.026,-0.028,-0.0299,-0.0304,-0.0268,-0.0299,-0.0278,-0.0297,-0.0349,-0.0291,-0.029,-0.0318,-0.0278,-0.0268,-0.0279,-0.0285,-0.0316,-0.0334,-0.0348,-0.0354,-0.0319,-0.0128,0,0,0,0,0,-0.0245,-0.0239,-0.0243,-0.0238,-0.0228,-0.0232,-0.0229,-0.0252,-0.0297,-0.0219,-0.0272,-0.0207,-0.0187,-0.0162,-0.0144,-0.0201,-0.0293,-0.0181,-0.034,-0.0397,-0.0411,-0.0438,0,0,0,0,0,0,-0.0232,-0.0235,-0.0231,-0.0178,-0.0157,-0.0131,-0.0122,-0.0145,-0.0098,-0.0152,-0.0115,-0.0196,-0.015,-0.0195,-0.0139,-0.0146,-0.0241,-0.0201,-0.02,-0.0389,-0.0402,-0.0413,-0.0446,0,0,0,0,0]},{"header":{"parameterUnit":"m.s-1","parameterCategory":2,"la1":30.2991,"la2":30.254,"lo1":-89.0895,"lo2":-89.0444,"dy":0.0017,"dx":0.0017,"nx":28,"ny":28,"refTime":"2024-07-12T03:00:00:Z","depth":"4","parameterNumber":3,"parameterNumberName":"V-component_of_CURRENTS"},"data":[0,0,0,0,0,0,0,0,0,0,0,0,0,0,0,0,0,0,0,0,0,0,0,0,0,0,0,0,0,0,0,0,0,0,0,0,0,0,0,0,0,0,0,0,0,0,0,0,0,0,0,0,0,0,0,0,0,0,0.0165,0.0165,0,0.0143,0.0143,0.0142,0.014,0.0141,0.0142,0.0142,0.0136,0.0136,0.0135,0,0,0,0,0,0,0,0,0,0,0,0,0,0.0175,0.0175,0.0165,0.0165,0.0165,0.0143,0.0143,0.0142,0.014,0.0141,0.0142,0.0143,0.0137,0.0136,0.0135,0,0,0,0,0,0,0,0,0,0,0,0,0,0.016,0.0175,0.0165,0.0165,0.0165,0.0143,0.0142,0.0142,0.014,0.0141,0.0142,0.0143,0.0137,0.0136,0.0135,0.0107,0,0,0.0131,0.0131,0,0,0,0,0,0,0,0,0.016,0.0159,0.0165,0.0165,0.0165,0.015,0.0144,0.0132,0.014,0.0145,0.0142,0.0144,0.0145,0.0143,0.013,0.0107,0.0107,0.0131,0.013,0.013,0.0129,0,0,0,0,0,0,0,0.0162,0.0159,0.0151,0.0165,0.0165,0.0157,0.0155,0.0141,0.0136,0.0144,0.0145,0.015,0.0144,0.0131,0.013,0.0106,0.0131,0.013,0.0129,0.0129,0.0051,0.005,0,0,0,0,0,0,0.0174,0.016,0.0152,0.0151,0.0171,0.0156,0.0155,0.015,0.0136,0.0136,0.0149,0.015,0.0132,0.0131,0.0129,0.0113,0.013,0.0129,0.0128,0.0052,0.0051,0.0049,0,0,0,0,0,0,0.0174,0.0173,0.0153,0.016,0.0157,0.0156,0.015,0.0149,0.0148,0.014,0.014,0.0152,0.0133,0.0131,0.0097,0.0113,0.0128,0.0127,0.0054,0.0052,0.005,0.007,0,0,0,0,0,0,0.0174,0.0173,0.018,0.016,0.0158,0.0142,0.015,0.0148,0.0151,0.0152,0.0142,0.0142,0.0134,0.0098,0.0095,0.0111,0.0126,0.0056,0.0053,0.0051,0.0071,0.0069,0.0067,0,0,0,0,0,0.0175,0.0167,0.018,0.018,0.0165,0.0142,0.0139,0.0138,0.0151,0.0142,0.012,0.0143,0.0081,0.0095,0.0092,0.0109,0.0057,0.0054,0.0051,0.0072,0.0069,0.0067,0,0,0,0,0,0,0.0157,0.0166,0.018,0.0172,0.0166,0.0144,0.0142,0.0143,0.0119,0.0121,0.0115,0.0111,0.0086,0.0082,0.0098,0.0074,0.0077,0.0074,0.0094,0.0091,0.0089,0.0093,0.0125,0,0,0,0,0,0.0163,0.0169,0.0168,0.0161,0.0163,0.0157,0.0153,0.0149,0.0127,0.0119,0.011,0.0093,0.0068,0.0068,0.004,0.0028,0.0035,0.0036,0.0035,0.0033,0.003,0.0043,0.0043,0.0039,0.0039,0.0039,0,0,0.0151,0.0161,0.0162,0.0161,0.0158,0.0138,0.0155,0.0144,0.0122,0.0121,0.0089,0.008,0.0056,0.0032,0.0025,0.0039,0.0036,0.0029,0.0029,0.0026,0.004,0.0041,0.0042,0.0037,0.0038,0.0038,0,0,0.0124,0.0143,0.0141,0.0137,0.0142,0.0131,0.0132,0.0117,0.0112,0.008,0.007,0.0059,0.0033,0.0017,0.0006,-0.0026,0.0014,-0.0017,-0.0005,0.0008,0.001,0.0011,0.0023,0.0026,-0.0002,-0.0002,-0.0002,0,0.0113,0.0111,0.0132,0.0124,0.0116,0.0128,0.0104,0.0091,0.0063,0.0053,0.0071,0.0027,0.002,-0.0011,-0.0014,-0.0026,-0.0007,0.0015,0.001,0.0011,0.0012,0.0024,0.0027,-0.0001,-0.0001,-0.0002,-0.0002,0,0.0081,0.0083,0.0076,0.0075,0.0062,0.0045,0.0034,0.0021,0.0028,0.002,0.0001,-0.0008,-0.0025,-0.0019,-0.002,-0.0016,-0.0002,-0.0001,0.0027,0.0015,0.0027,0.0029,-0.0001,-0.0001,-0.0001,-0.0001,0,0,0.0041,0.0056,0.0051,0.0051,0.0039,0.0019,-0.0015,-0.004,-0.006,-0.0051,-0.0069,-0.0078,-0.0048,-0.006,-0.0046,-0.0019,0.0013,0.0011,0.0012,0.0043,0.0057,-0.0019,-0.0024,0.0034,0.0035,0.0035,0.0065,0,0.0011,-0.0005,-0.0,-0.0036,-0.0044,-0.0048,-0.0085,-0.0107,-0.0112,-0.0128,-0.0103,-0.0116,-0.0073,-0.0061,-0.0029,-0.0007,0.002,0.0005,0.0046,0.0047,-0.0003,-0.0025,0.0036,0.0067,0.0067,0.0068,0.0068,0,-0.0023,-0.0024,-0.0054,-0.007,-0.0078,-0.0111,-0.0155,-0.0182,-0.0202,-0.0195,-0.0178,-0.0158,-0.0124,-0.0084,-0.0021,-0.0021,0.002,0.0047,0.0049,-0.0028,-0.0026,0.0077,0.0072,0.0072,0.0071,0.0071,0.0071,0,-0.005,-0.0067,-0.0087,-0.0094,-0.0118,-0.0146,-0.017,-0.0206,-0.0225,-0.0228,-0.0225,-0.0188,-0.0161,-0.0098,-0.0034,-0.001,0.0027,0.0058,0.0021,0.0017,0.0074,0.0072,0.0092,0.0092,0.0092,0.0092,0.0092,0,-0.0075,-0.0092,-0.01,-0.0112,-0.0158,-0.0167,-0.0221,-0.0239,-0.026,-0.028,-0.0245,-0.0242,-0.0155,-0.0124,-0.0054,-0.0022,0.0012,0.0012,0.0013,0.0079,0.0078,0.0076,0.0074,0.0093,0.0093,0.0093,0.0093,0,-0.0094,-0.0095,-0.012,-0.0149,-0.0166,-0.0201,-0.0248,-0.028,-0.0287,-0.031,-0.03,-0.027,-0.0226,-0.0175,-0.0095,-0.0066,-0.0023,-0.0025,0.0026,0.0031,-0.0027,-0.0029,-0.0042,-0.0045,-0.0047,-0.0049,-0.005,0,-0.0101,-0.0111,-0.015,-0.0176,-0.0191,-0.0237,-0.0274,-0.0294,-0.0312,-0.0326,-0.0328,-0.031,-0.0286,-0.0228,-0.0176,-0.0102,-0.0091,-0.0071,-0.003,-0.0047,-0.0043,-0.0042,-0.0041,-0.0054,-0.0054,-0.0055,-0.0056,0,-0.0117,-0.0131,-0.0151,-0.0196,-0.0239,-0.0285,-0.0323,-0.033,-0.0345,-0.0357,-0.0341,-0.0324,-0.0308,-0.0247,-0.0225,-0.016,-0.0082,-0.0093,-0.0086,-0.0047,-0.0061,-0.0055,-0.0051,-0.0063,-0.0062,-0.0061,-0.0061,0,-0.0137,-0.0154,-0.0178,-0.0215,-0.0267,-0.0305,-0.0331,-0.0341,-0.0355,-0.0349,-0.035,-0.0327,-0.0312,-0.0281,-0.0246,-0.0219,-0.0185,-0.0146,-0.0136,-0.0127,-0.0174,-0.0205,-0.0259,0,0,0,0,0,-0.0155,-0.0162,-0.0195,-0.0232,-0.0277,-0.0306,-0.0349,-0.0361,-0.0368,-0.0356,-0.0347,-0.033,-0.0304,-0.0288,-0.0268,-0.0283,-0.0188,-0.0262,-0.0139,-0.0105,-0.0096,-0.0145,0,0,0,0,0,0,-0.0171,-0.0193,-0.0189,-0.0226,-0.0251,-0.0304,-0.0332,-0.0344,-0.0326,-0.0328,-0.0303,-0.032,-0.0283,-0.03,-0.026,-0.0259,-0.018,-0.0255,-0.0254,-0.011,-0.0102,-0.0095,-0.0142,0,0,0,0,0]}]]